This is the latest recevied weather packets stored in our database for station/object VK3CG. If no packets are shown the sender has not sent any weather packets the latest 10 day(s).
| Time | Temp. | Humidity | Pressure | Rain* | Wind** | Luminosity | Snow |
|---|---|---|---|---|---|---|---|
| 1777791604 | 12.22° C | 64% | 1021.9 hPa | 0 mm | - | 18 W/m² | - |
| 1777790707 | 12.22° C | 64% | 1022 hPa | 0 mm | - | 19 W/m² | - |
| 1777789807 | 12.22° C | 64% | 1021.6 hPa | 0 mm | - | 23 W/m² | - |
| 1777788903 | 12.22° C | 65% | 1021.7 hPa | 0 mm | - | 149 W/m² | - |
| 1777788002 | 12.22° C | 68% | 1021.5 hPa | 0 mm | - | 33 W/m² | - |
| 1777787102 | 12.22° C | 72% | 1021.3 hPa | 0 mm | - | 67 W/m² | - |
| 1777786261 | 12.22° C | 75% | 1021.4 hPa | 0 mm | - | 109 W/m² | - |
| 1777785360 | 12.78° C | 78% | 1021.4 hPa | 0.25 mm | - | 167 W/m² | - |
| 1777784463 | 12.22° C | 78% | 1021.3 hPa | 0.51 mm | - | 155 W/m² | - |
| 1777783557 | 12.22° C | 78% | 1021.4 hPa | 0.51 mm | - | 155 W/m² | - |
| 1777782658 | 12.78° C | 78% | 1021.4 hPa | 0.51 mm | - | 79 W/m² | - |
| 1777781754 | 12.78° C | 78% | 1021.4 hPa | 0.76 mm | - | 146 W/m² | - |
| 1777780855 | 13.33° C | 78% | 1021.4 hPa | 1.02 mm | - | 72 W/m² | - |
| 1777779943 | 13.33° C | 78% | 1021.6 hPa | 2.29 mm | - | 49 W/m² | - |
| 1777777264 | 14.44° C | 78% | 1021.1 hPa | 2.29 mm | - | 139 W/m² | - |
| 1777767331 | 14.44° C | 78% | 1022.4 hPa | 8.64 mm | - | 5 W/m² | - |
| 1777761924 | 14.44° C | 78% | 1022.8 hPa | 0.25 mm | - | 0 W/m² | - |
| 1777761021 | 14.44° C | 77% | 1022.2 hPa | 0.25 mm | - | 14 W/m² | - |
| 1777760119 | 13.89° C | 77% | 1022 hPa | 0.51 mm | - | 19 W/m² | - |
| 1777757432 | 13.89° C | 75% | 1022.7 hPa | 0.51 mm | - | 11 W/m² | - |
| 1777756517 | 13.89° C | 75% | 1022.7 hPa | 1.02 mm | - | 0 W/m² | - |
| 1777753805 | 13.89° C | 72% | 1023.2 hPa | 1.52 mm | - | 0 W/m² | - |
| 1777752906 | 13.89° C | 71% | 1023.6 hPa | 1.52 mm | - | 0 W/m² | - |
| 1777752001 | 13.89° C | 71% | 1023.8 hPa | 1.52 mm | - | 0 W/m² | - |
| 1777751102 | 13.33° C | 70% | 1023.7 hPa | 1.52 mm | - | 0 W/m² | - |
* Rain latest hour (hover to see other rain measurements)
** Current wind speed in m/s (hover to see current wind gust speed)